Weather History for Noatak, AK

Change the Weather History Date:

Friday, March 29, 2013

  Actual Average Record
Temperature  
Mean Temperature 2 °F -  
Max Temperature 14 °F 12 °F 24 °F (2014)
Min Temperature -9 °F 0 °F -23 °F (2004)
Degree Days  
Heating Degree Days 62    
Moisture  
Dew Point -4 °F    
Average Humidity 67    
Maximum Humidity 92    
Minimum Humidity 46    
Precipitation  
Precipitation 0.00 in - - ()
Sea Level Pressure  
Sea Level Pressure 29.98 in    
Wind  
Wind Speed 5 mph (NNE)    
Max Wind Speed 9 mph    
Max Gust Speed -    
Visibility 8 miles    
Events      
Averages and records for this station are not official NWS values.
T = Trace of Precipitation, MM = Missing Value Source: NWS Daily Summary

Daily Weather History Graph

Daily Weather History Graph

Search for Another Location

Airport:

Trip Planner

Search our weather history database for the weather conditions in past years. The results will help you decide how hot, cold, wet, or windy it might be!

Date:

Astronomy

Mar. 29, 2013 Rise Set
Actual Time 8:12 AM AKDT 9:42 PM AKDT
Civil Twilight 7:15 AM AKDT 10:40 PM AKDT
Nautical Twilight 5:59 AM AKDT 11:57 PM AKDT
Astronomical Twilight 4:00 AM AKDT 2:07 AM AKDT
Moon 1:07 AM AKDT (3/29) 8:00 AM AKDT (3/29)
Length of Visible Light 15h 24m
Length of Day
13h 30m
Waning Gibbous, 92% of the Moon is Illuminated
Mar 29
Waning Gibbous
Apr 2
Last Quarter
Apr 10
New
Apr 18
First Quarter
Apr 25
Full

Hourly Weather History & Observations

Time (AKDT) Temp. Windchill Dew Point Humidity Pressure Visibility Wind Dir Wind Speed Gust Speed Precip Events Conditions
12:16 AM -5.8 °F -22.4 °F -18.4 °F 55% 29.98 in 10.0 mi North 9.2 mph - N/A   Clear
12:36 AM -7.6 °F -20.6 °F -22.0 °F 50% 29.98 in 10.0 mi North 5.8 mph - N/A   Partly Cloudy
12:56 AM -9.4 °F -20.9 °F -22.0 °F 54% 29.98 in 10.0 mi North 4.6 mph - N/A   Partly Cloudy
1:16 AM -9.4 °F -22.7 °F -22.0 °F 54% 29.98 in 10.0 mi North 5.8 mph - N/A   Mostly Cloudy
1:36 AM -9.4 °F -22.7 °F -22.0 °F 54% 29.98 in 10.0 mi North 5.8 mph - N/A   Overcast
1:56 AM -9.4 °F -22.7 °F -22.0 °F 54% 29.98 in 10.0 mi North 5.8 mph - N/A   Overcast
2:16 AM -7.6 °F -20.6 °F -20.2 °F 54% 29.98 in 10.0 mi North 5.8 mph - N/A   Overcast
2:36 AM -5.8 °F -21.2 °F -18.4 °F 55% 29.98 in 10.0 mi North 8.1 mph - N/A   Overcast
2:56 AM -4.0 °F -16.3 °F -18.4 °F 50% 29.98 in 10.0 mi NNE 5.8 mph - N/A   Overcast
3:16 AM -4.0 °F -17.8 °F -18.4 °F 50% 29.98 in 10.0 mi North 6.9 mph - N/A   Overcast
3:56 AM -2.2 °F -16.8 °F -16.6 °F 50% 29.97 in 10.0 mi North 8.1 mph - N/A   Overcast
4:16 AM -2.2 °F -16.8 °F -16.6 °F 50% 29.97 in 10.0 mi NNE 8.1 mph - N/A   Overcast
4:36 AM -2.2 °F -14.2 °F -16.6 °F 50% 29.97 in 10.0 mi NNE 5.8 mph - N/A   Overcast
4:56 AM -2.2 °F -15.6 °F -16.6 °F 50% 29.97 in 10.0 mi North 6.9 mph - N/A   Overcast
5:16 AM -0.4 °F -12.0 °F -14.8 °F 51% 29.97 in 10.0 mi North 5.8 mph - N/A   Overcast
5:36 AM -0.4 °F -8.3 °F -16.6 °F 46% 29.97 in 9.0 mi NNE 3.5 mph - N/A   Overcast
5:56 AM -0.4 °F -12.0 °F -14.8 °F 51% 29.97 in 10.0 mi NNE 5.8 mph - N/A   Overcast
6:16 AM -0.4 °F -13.4 °F -14.8 °F 51% 29.96 in 10.0 mi North 6.9 mph - N/A   Overcast
6:36 AM -0.4 °F -14.7 °F -14.8 °F 51% 29.96 in 10.0 mi North 8.1 mph - N/A   Overcast
6:56 AM -0.4 °F -13.4 °F -13.0 °F 55% 29.96 in 10.0 mi NNE 6.9 mph - N/A   Overcast
7:16 AM -0.4 °F -10.4 °F -13.0 °F 55% 29.96 in 10.0 mi North 4.6 mph - N/A   Overcast
7:36 AM -0.4 °F -10.4 °F -13.0 °F 55% 29.96 in 10.0 mi NNE 4.6 mph - N/A   Overcast
7:56 AM 1.4 °F -9.9 °F -11.2 °F 56% 29.96 in 10.0 mi NNE 5.8 mph - N/A   Overcast
8:16 AM 1.4 °F -8.3 °F -11.2 °F 56% 29.96 in 9.0 mi North 4.6 mph - N/A   Overcast
8:56 AM 1.4 °F -9.9 °F -9.4 °F 61% 29.96 in 10.0 mi North 5.8 mph - N/A   Overcast
9:16 AM 1.4 °F -9.9 °F -7.6 °F 66% 29.96 in 5.0 mi NNE 5.8 mph - N/A   Overcast
9:36 AM 1.4 °F -9.9 °F -7.6 °F 66% 29.96 in 9.0 mi NNE 5.8 mph - N/A   Overcast
9:56 AM 3.2 °F -9.1 °F -7.6 °F 61% 29.96 in 9.0 mi NNE 6.9 mph - N/A   Overcast
10:16 AM 3.2 °F -7.8 °F -7.6 °F 61% 29.96 in 7.0 mi NNE 5.8 mph - N/A   Overcast
10:36 AM 3.2 °F -6.2 °F -7.6 °F 61% 29.96 in 5.0 mi NNE 4.6 mph - N/A   Overcast
10:56 AM 3.2 °F -7.8 °F -5.8 °F 66% 29.96 in 5.0 mi NNE 5.8 mph - N/A   Overcast
11:16 AM 5.0 °F -8.1 °F -5.8 °F 61% 29.96 in 8.0 mi NE 8.1 mph - N/A   Overcast
11:36 AM 6.8 °F -0.1 °F -2.2 °F 67% 29.96 in 7.0 mi NNE 3.5 mph - N/A   Overcast
11:56 AM 6.8 °F -3.5 °F -0.4 °F 72% 29.96 in 5.0 mi NE 5.8 mph - N/A   Overcast
12:16 PM 6.8 °F -3.5 °F -0.4 °F 72% 29.96 in 10.0 mi ENE 5.8 mph - N/A   Overcast
12:36 PM 8.6 °F 2.0 °F 1.4 °F 73% 29.96 in 6.0 mi NNE 3.5 mph - N/A   Mostly Cloudy
12:56 PM 8.6 °F 2.0 °F 1.4 °F 73% 29.96 in 9.0 mi North 3.5 mph - N/A   Mostly Cloudy
1:16 PM 8.6 °F 0.1 °F -7.6 °F 48% 29.97 in 10.0 mi North 4.6 mph - N/A   Overcast
1:36 PM 10.4 °F 2.2 °F 1.4 °F 67% 29.96 in 8.0 mi North 4.6 mph - N/A   Overcast
1:56 PM 10.4 °F 4.0 °F 1.4 °F 67% 29.96 in 5.0 mi NE 3.5 mph - N/A   Overcast
2:16 PM 10.4 °F -1.5 °F 1.4 °F 67% 29.97 in 10.0 mi NE 8.1 mph - N/A   Overcast
2:36 PM 10.4 °F -0.4 °F 1.4 °F 67% 29.97 in 10.0 mi NE 6.9 mph - N/A   Overcast
2:56 PM 10.4 °F -1.5 °F 3.2 °F 73% 29.97 in 10.0 mi ENE 8.1 mph - N/A   Overcast
3:16 PM 12.2 °F 4.3 °F 3.2 °F 67% 29.97 in 10.0 mi NE 4.6 mph - N/A   Overcast
3:36 PM 14.0 °F - 6.8 °F 73% 29.97 in 9.0 mi Calm Calm - N/A   Overcast
3:56 PM 14.0 °F - 6.8 °F 73% 29.97 in 3.0 mi Calm Calm - N/A   Overcast
4:16 PM 14.0 °F - 6.8 °F 73% 29.97 in 10.0 mi Calm Calm - N/A   Overcast
4:36 PM 12.2 °F 6.1 °F 5.0 °F 73% 29.97 in 2.5 mi SE 3.5 mph - N/A   Overcast
4:56 PM 12.2 °F 6.1 °F 6.8 °F 79% 29.97 in 5.0 mi SE 3.5 mph - N/A   Overcast
5:16 PM 12.2 °F - 6.8 °F 79% 29.97 in 2.0 mi Calm Calm - N/A   Overcast
5:36 PM 12.2 °F - 6.8 °F 79% 29.97 in 1.2 mi Calm Calm - N/A   Overcast
5:56 PM 14.0 °F - 6.8 °F 73% 29.97 in 2.0 mi Calm Calm - N/A   Overcast
6:16 PM 12.2 °F - 8.6 °F 85% 29.98 in 2.5 mi Calm Calm - N/A   Overcast
6:36 PM 12.2 °F - 6.8 °F 79% 29.98 in 9.0 mi Calm Calm - N/A   Overcast
6:56 PM 12.2 °F - 8.6 °F 85% 29.98 in 10.0 mi Calm Calm - N/A   Overcast
7:16 PM 12.2 °F - 8.6 °F 85% 29.98 in 5.0 mi Calm Calm - N/A   Overcast
7:36 PM 12.2 °F - 8.6 °F 85% 29.98 in 2.5 mi Calm Calm - N/A   Overcast
7:56 PM 12.2 °F - 8.6 °F 85% 29.98 in 3.0 mi Calm Calm - N/A   Overcast
8:16 PM 12.2 °F - 8.6 °F 85% 29.99 in 6.0 mi Calm Calm - N/A   Overcast
8:36 PM 12.2 °F - 8.6 °F 85% 29.99 in 1.8 mi Calm Calm - N/A   Overcast
8:56 PM 12.2 °F - 8.6 °F 85% 29.99 in 1.2 mi Calm Calm - N/A   Overcast
9:16 PM 12.2 °F - 8.6 °F 85% 30.00 in 1.5 mi Calm Calm - N/A   Overcast
9:36 PM 12.2 °F - 8.6 °F 85% 30.00 in 4.0 mi Calm Calm - N/A   Overcast
9:56 PM 10.4 °F - 8.6 °F 92% 30.01 in 10.0 mi Calm Calm - N/A   Overcast
10:16 PM 10.4 °F 4.0 °F 6.8 °F 85% 30.01 in 5.0 mi SE 3.5 mph - N/A   Overcast
10:36 PM 10.4 °F 4.0 °F 6.8 °F 85% 30.02 in 5.0 mi SE 3.5 mph - N/A   Overcast
10:56 PM 10.4 °F - 6.8 °F 85% 30.02 in 7.0 mi Calm Calm - N/A   Overcast
11:16 PM 8.6 °F - 5.0 °F 85% 30.02 in 10.0 mi Calm Calm - N/A   Overcast
11:36 PM 8.6 °F - 5.0 °F 85% 30.03 in 10.0 mi Calm Calm - N/A   Overcast
11:56 PM 8.6 °F - 5.0 °F 85% 30.03 in 8.0 mi Calm Calm - N/A   Overcast